This demonstration page uses our WeatherBlox Daily Observations layout. Learn more.

Left ArrowRight Arrow

34.02893, -84.19858

Hourly Observations for July 9, 2021

Temp ( °F °C ) Dew Point ( °F °C ) Humidity (%) Winds ( mph kmh ) Pressure ( in mb ) Visibility ( mi km ) Precip ( " mm )
12:53 am 00:53 Clear 75 23.9 72 22.2 90 90 WSW 5 7 30.01 1016 10 16 0.00 0.00
1:53 am 01:53 Clear 73 22.8 71 21.7 94 94 SSW 3 6 30.01 1016 10 16 0.00 0.00
2:53 am 02:53 Clear 73 22.8 71 21.7 94 94 WSW 6 9 30.02 1017 10 16 0.00 0.00
3:53 am 03:53 Clear 72 22.2 71 21.7 97 97 W 6 9 30.01 1016 9 14 0.00 0.00
4:53 am 04:53 Clear 72 22.2 70 21.1 94 94 WSW 3 6 30.01 1016 10 16 0.00 0.00
5:27 am 05:27 Mostly Clear 72 22.2 70 21.1 94 94 SW 8 13 30.04 1017 9 14 0.00 0.00
5:41 am 05:41 Mostly Cloudy 72 22.2 71 21.7 97 97 WSW 5 7 30.04 1017 9 14 0.00 0.00
5:53 am 05:53 Partly Cloudy 72 22.2 71 21.7 97 97 W 6 9 30.02 1017 9 14 0.00 0.00
6:14 am 06:14 Mostly Cloudy 72 22.2 71 21.7 97 97 SW 5 7 30.05 1017 8 13 0.00 0.00
6:53 am 06:53 Cloudy with Mist and Fog 72 22.2 71 21.7 97 97 SW 6 9 30.03 1017 6 10 0.00 0.00
7:53 am 07:53 Cloudy 73 22.8 72 22.2 96 96 W 6 9 30.04 1017 7 11 0.00 0.00
8:21 am 08:21 Cloudy 74 23.3 72 22.2 94 94 WSW 9 15 30.06 1018 8 13 0.00 0.00
8:35 am 08:35 Cloudy 75 23.9 72 22.2 90 90 VRB 6 9 30.07 1018 9 14 0.00 0.00
8:53 am 08:53 Cloudy 75 23.9 72 22.2 90 90 WSW 8 13 30.06 1018 9 14 0.00 0.00
9:01 am 09:01 Cloudy 75 23.9 72 22.2 90 90 WSW 8 13 30.08 1019 10 16 0.00 0.00
9:53 am 09:53 Cloudy 77 25 72 22.2 85 85 W 7 11 30.07 1018 10 16 0.00 0.00
10:14 am 10:14 Cloudy 78 25.6 72 22.2 82 82 W 7 11 30.07 1018 10 16 0.00 0.00
10:53 am 10:53 Cloudy 79 26.1 72 22.2 79 79 W 7 11 30.07 1018 10 16 0.00 0.00
11:53 am 11:53 Mostly Cloudy 84 28.9 74 23.3 72 72 WSW 10 17 30.06 1018 10 16 0.00 0.00
12:00 pm 12:00 Mostly Sunny 84 28.9 74 23.3 72 72 WSW 12 19 30.06 1018 10 16 0.00 0.00
12:53 pm 12:53 Mostly Cloudy 84 28.9 73 22.8 70 70 WSW 12 19 30.06 1018 10 16 0.00 0.00
1:53 pm 13:53 Mostly Cloudy with Light Rain 85 29.4 71 21.7 63 63 W 14 22 30.04 1017 10 16 0.00 0.00
2:00 pm 14:00 Partly Cloudy with Nearby Thunderstorms 85 29.4 72 22.2 65 65 W 9 15 30.03 1017 10 16 0.00 0.00
2:13 pm 14:13 Mostly Cloudy with Thunderstorms 85 29.4 71 21.7 63 63 WNW 22 35 30.04 1017 10 16 0.00 0.00
2:18 pm 14:18 Mostly Cloudy with Strong Thunderstorms 77 25 69 20.6 77 77 WNW 24 39 30.07 1018 2 3 0.07 1.78
2:24 pm 14:24 Mostly Cloudy with Strong Thunderstorms 71 21.7 67 19.4 87 87 NW 18 30 30.09 1019 1 1 0.25 6.35
2:35 pm 14:35 Cloudy with Strong Thunderstorms 71 21.7 69 20.6 94 94 WNW 3 6 30.09 1019 1 1 0.51 12.95
2:40 pm 14:40 Cloudy with Strong Thunderstorms 70 21.1 69 20.6 97 97 Calm 30.08 1019 1 1 0.54 13.72
2:48 pm 14:48 Cloudy with Thunderstorms 72 22 70 21 94 94 Calm 30.08 1019 2 3 0.56 14.22
2:49 pm 14:49 Cloudy with Thunderstorms 71 21.7 69 20.6 94 94 NE 3 6 30.07 1018 3 4 0.56 14.22
2:56 pm 14:56 Mostly Cloudy with Nearby Thunderstorms 70 21.1 69 20.6 97 97 Calm 30.09 1019 5 8 0.00 0.00
3:31 pm 15:31 Cloudy with Thunderstorms 71 21.7 68 20 90 90 W 13 20 30.14 1021 4 6 0.04 1.02
3:33 pm 15:33 Cloudy with Thunderstorms 71 21.7 68 20 90 90 W 12 19 30.14 1021 2 3 0.08 2.03
3:40 pm 15:40 Cloudy with Strong Thunderstorms 70 21.1 68 20 93 93 NW 10 17 30.13 1020 1 1 0.22 5.59
3:50 pm 15:50 Cloudy with Thunderstorms 70 21 68 20 94 94 NW 6 9 30.12 1020 2 2 0.31 7.87
3:53 pm 15:53 Cloudy with Thunderstorms 70 21.1 68 20 93 93 NW 3 6 30.11 1020 4 6 0.32 8.13
4:04 pm 16:04 Cloudy with Light Rain 70 21.1 68 20 93 93 Calm 30.10 1019 4 6 0.01 0.25
4:11 pm 16:11 Mostly Cloudy with Nearby Thunderstorms 70 21.1 68 20 93 93 ENE 3 6 30.08 1019 4 6 0.02 0.51
4:26 pm 16:26 Partly Cloudy 70 21.1 68 20 93 93 Calm 30.06 1018 10 16 0.02 0.51
4:53 pm 16:53 Mostly Cloudy with Light Rain 71 21.7 70 21.1 96 96 SW 7 11 30.04 1017 10 16 0.03 0.76
5:53 pm 17:53 Sunny 75 23.9 70 21.1 84 84 NNW 6 9 30.04 1017 10 16 0.00 0.00
6:53 pm 18:53 Sunny 76 24.4 70 21.1 82 82 W 5 7 30.04 1017 10 16 0.00 0.00
7:53 pm 19:53 Sunny 76 24.4 71 21.7 85 85 WSW 3 6 30.05 1018 10 16 0.00 0.00
8:53 pm 20:53 Clear 75 23.9 71 21.7 88 88 Calm 30.06 1018 10 16 0.00 0.00
9:53 pm 21:53 Clear 73 22.8 71 21.7 94 94 W 5 7 30.08 1019 10 16 0.00 0.00
10:53 pm 22:53 Partly Cloudy 74 23.3 71 21.7 91 91 Calm 30.09 1019 10 16 0.00 0.00
11:53 pm 23:53 Mostly Clear 72 22.2 71 21.7 97 97 Calm 30.08 1019 7 11 0.00 0.00

Powered by AerisWeather